Erie, PA

3:56 AM EDT on September 18, 2019 (GMT -0400)
Erie International

Weather History for KERI - August, 2019

Change the Weather History Date:

Thursday, August 22, 2019

  Actual Average Record
Temperature  
Mean Temperature 70 °F 70 °F  
Max Temperature 75 °F 78 °F 93 °F (1936)
Min Temperature 66 °F 62 °F 42 °F (1957)
Degree Days  
Heating Degree Days 0 0  
Month to date heating degree days 0 0  
Since 1 June heating degree days 38 68  
Since 1 July heating degree days 0 7  
Cooling Degree Days 6 6  
Month to date cooling degree days 192 140  
Year to date cooling degree days 657 515  
Since 1 June cooling degree days 624 476  
Growing Degree Days 20 (Base 50)    
Moisture  
Dew Point 57 °F    
Average Humidity 62    
Maximum Humidity 84    
Minimum Humidity 44    
Precipitation  
Precipitation 0.04 in 0.10 in 2.02 in (1955)
Month to date precipitation 3.41 2.48  
Year to date precipitation 25.91 24.84  
Snow  
Snow 0.00 in 0.00 in - ()
Month to date snowfall 0.0 0.0  
Since 1 June snowfall 0.0 0.0  
Since 1 July snowfall 0.0 0.0  
Snow Depth 0.00 in    
Sea Level Pressure  
Sea Level Pressure 29.95 in    
Wind  
Wind Speed 6 mph ()    
Max Wind Speed 14 mph    
Max Gust Speed 19 mph    
Visibility 10.0 miles    
Events Rain , Thunderstorm    
T = Trace of Precipitation, MM = Missing Value Source: Averaged Metar Reports

Daily Weather History Graph

Daily Weather History Graph

Search for Another Location

Airport or City:

Astronomy

Aug. 22, 2019 Rise Set
Actual Time 6:35 AM EDT 8:10 PM EDT
Civil Twilight 6:06 AM EDT 8:40 PM EDT
Nautical Twilight 5:30 AM EDT 9:15 PM EDT
Astronomical Twilight 4:52 AM EDT 9:53 PM EDT
Moon 11:52 PM EDT (8/22) 1:16 PM EDT (8/22)
Length of Visible Light 14h 34m
Length of Day
13h 35m
Waning Gibbous, 60% of the Moon is Illuminated
Aug 22
Waning Gibbous
Aug 23
Last Quarter
Aug 30
New
Sep 5
First Quarter
Sep 14
Full

Hourly Weather History & Observations

Time (EDT) Temp. Dew Point Humidity Pressure Visibility Wind Dir Wind Speed Gust Speed Precip Events Conditions
12:51 AM 73.0 °F 66.9 °F 81% 29.88 in 10.0 mi SSW 5.8 mph - N/A   Mostly Cloudy
1:51 AM 73.9 °F 68.0 °F 82% 29.87 in 10.0 mi WSW 5.8 mph - N/A   Clear
2:25 AM 75.0 °F 68.0 °F 79% 29.88 in 10.0 mi West 4.6 mph - 0.00 in Rain Light Rain
2:37 AM 75.0 °F 68.0 °F 79% 29.88 in 10.0 mi SW 5.8 mph - 0.00 in   Overcast
2:51 AM 73.9 °F 68.0 °F 82% 29.86 in 10.0 mi SW 5.8 mph - 0.00 in   Overcast
2:59 AM 73.9 °F 68.0 °F 82% 29.88 in 10.0 mi NNW 8.1 mph - N/A   Overcast
3:51 AM 73.0 °F 68.0 °F 84% 29.89 in 10.0 mi North 6.9 mph - N/A   Overcast
4:20 AM 73.0 °F 64.0 °F 73% 29.91 in 10.0 mi NNE 6.9 mph - N/A   Overcast
4:51 AM 72.0 °F 63.0 °F 73% 29.90 in 10.0 mi North 5.8 mph - 0.00 in Rain Light Rain
5:28 AM 71.1 °F 62.1 °F 73% 29.93 in 10.0 mi NNE 6.9 mph - 0.01 in Thunderstorm Overcast
5:43 AM 71.1 °F 60.1 °F 68% 29.94 in 10.0 mi North 8.1 mph - 0.01 in Rain Light Rain
5:51 AM 70.0 °F 60.1 °F 71% 29.92 in 10.0 mi NE 9.2 mph - 0.01 in Rain Light Rain
6:13 AM 70.0 °F 59.0 °F 68% 29.95 in 10.0 mi North 3.5 mph - 0.02 in Rain Light Rain
6:51 AM 69.1 °F 57.0 °F 65% 29.94 in 10.0 mi NNE 5.8 mph - 0.02 in Rain Light Rain
7:51 AM 71.1 °F 55.9 °F 59% 29.94 in 10.0 mi NNE 9.2 mph - 0.00 in   Partly Cloudy
8:51 AM 71.1 °F 55.0 °F 57% 29.95 in 10.0 mi NNE 6.9 mph - N/A   Clear
9:51 AM 71.1 °F 51.1 °F 49% 29.97 in 10.0 mi North 9.2 mph - N/A   Overcast
10:51 AM 71.1 °F 51.1 °F 49% 29.99 in 10.0 mi NNE 6.9 mph - N/A   Mostly Cloudy
11:51 AM 72.0 °F 48.9 °F 44% 30.00 in 10.0 mi North 9.2 mph - N/A   Overcast
12:51 PM 72.0 °F 48.9 °F 44% 30.00 in 10.0 mi NNE 4.6 mph - N/A   Scattered Clouds
1:51 PM 70.0 °F 52.0 °F 53% 29.98 in 10.0 mi NNE 5.8 mph - 0.00 in Rain Light Rain
2:51 PM 72.0 °F 50.0 °F 46% 29.99 in 10.0 mi NW 3.5 mph - 0.01 in   Partly Cloudy
3:51 PM 73.0 °F 52.0 °F 48% 29.98 in 10.0 mi Variable 5.8 mph - N/A   Mostly Cloudy
4:51 PM 73.0 °F 55.0 °F 53% 29.98 in 10.0 mi WNW 8.1 mph - N/A   Clear
5:51 PM 73.0 °F 55.0 °F 53% 29.98 in 10.0 mi WNW 9.2 mph - N/A   Clear
6:51 PM 73.0 °F 55.9 °F 55% 29.98 in 10.0 mi NW 6.9 mph - N/A   Clear
7:51 PM 72.0 °F 53.1 °F 51% 29.99 in 10.0 mi NW 10.4 mph - N/A   Scattered Clouds
8:51 PM 70.0 °F 48.0 °F 46% 30.00 in 10.0 mi WNW 10.4 mph - N/A   Clear
9:51 PM 69.1 °F 48.0 °F 47% 30.01 in 10.0 mi NW 6.9 mph 17.3 mph N/A   Clear
10:51 PM 69.1 °F 48.0 °F 47% 30.01 in 10.0 mi NW 8.1 mph - N/A   Clear
11:51 PM 68.0 °F 53.1 °F 59% 30.03 in 10.0 mi NNW 6.9 mph - N/A   Clear